VH314 YRYL-YRYL

Flight info

Callsign VH314
Flight time N/A
Altitude 7500
Route CLOSED TRAFFIC CIRCUITS YRYL
Aircraft C152/L-V/N

Departure

Time 2026-05-06 23:04
Airport Rylstone Aerodrome (YRYL)

Arrival

Time N/A
Airport Rylstone Aerodrome (YRYL)
Time Latitude Longitude Altitude Speed Heading
2026-05-06 22:50 -32.76802 149.99318 1992 ft 0 kts 143°
2026-05-06 22:53 -32.76803 149.99319 1994 ft 1 kts 142°
2026-05-06 22:54 -32.76827 149.99328 1992 ft 6 kts 169°
2026-05-06 22:54 -32.76854 149.99332 1992 ft 6 kts 174°
2026-05-06 22:55 -32.76866 149.99333 1992 ft 0 kts 173°
2026-05-06 22:56 -32.76875 149.99333 1992 ft 8 kts 181°
2026-05-06 22:56 -32.76953 149.99337 1993 ft 12 kts 181°
2026-05-06 22:57 -32.77016 149.99341 1994 ft 6 kts 174°
2026-05-06 22:57 -32.77032 149.99344 1994 ft 4 kts 170°
2026-05-06 22:58 -32.77036 149.99345 1996 ft 0 kts 169°
2026-05-06 22:58 -32.77037 149.99345 1996 ft 3 kts 169°
2026-05-06 22:58 -32.77103 149.99362 1994 ft 11 kts 104°
2026-05-06 22:58 -32.77104 149.99466 1993 ft 17 kts 97°
2026-05-06 22:59 -32.77128 149.99663 1990 ft 32 kts 98°
2026-05-06 22:59 -32.77156 149.99926 1987 ft 30 kts 95°
2026-05-06 22:59 -32.77163 150.00042 1986 ft 3 kts 15°
2026-05-06 22:59 -32.77160 150.00010 1988 ft 0 kts 270°
2026-05-06 23:02 -32.77160 150.00009 1988 ft 1 kts 267°
2026-05-06 23:02 -32.77154 149.99939 1987 ft 21 kts 277°
2026-05-06 23:02 -32.77112 149.99598 2013 ft 58 kts 279°
2026-05-06 23:02 -32.77043 149.99113 2105 ft 62 kts 277°
2026-05-06 23:03 -32.76929 149.98604 2208 ft 66 kts 279°
2026-05-06 23:03 -32.76964 149.98080 2372 ft 62 kts 229°
2026-05-06 23:03 -32.77386 149.97961 2434 ft 71 kts 181°
2026-05-06 23:03 -32.77878 149.97969 2553 ft 69 kts 180°
2026-05-06 23:04 -32.78366 149.97967 2654 ft 69 kts 183°
2026-05-06 23:04 -32.78851 149.98010 2751 ft 69 kts 157°
2026-05-06 23:04 -32.79235 149.98328 2885 ft 70 kts 136°
2026-05-06 23:04 -32.79601 149.98679 3047 ft 65 kts 133°
2026-05-06 23:05 -32.79879 149.99119 3151 ft 66 kts 123°
2026-05-06 23:05 -32.80070 149.99590 3258 ft 65 kts 101°
2026-05-06 23:05 -32.80064 150.00135 3385 ft 64 kts 73°
2026-05-06 23:05 -32.79745 150.00504 3459 ft 71 kts 30°
2026-05-06 23:06 -32.79355 150.00817 3571 ft 66 kts 41°
2026-05-06 23:06 -32.79000 150.01132 3705 ft 63 kts 42°
2026-05-06 23:06 -32.78648 150.01459 3810 ft 63 kts 43°
2026-05-06 23:06 -32.78307 150.01839 3864 ft 70 kts 39°
2026-05-06 23:07 -32.77958 150.02154 4006 ft 63 kts 67°
2026-05-06 23:07 -32.77896 150.02712 4021 ft 75 kts 106°
2026-05-06 23:07 -32.78219 150.03201 4184 ft 69 kts 126°
2026-05-06 23:07 -32.78541 150.03648 4235 ft 75 kts 118°
2026-05-06 23:08 -32.78718 150.04170 4380 ft 66 kts 94°
2026-05-06 23:08 -32.78759 150.04739 4448 ft 69 kts 90°
2026-05-06 23:08 -32.78725 150.05293 4581 ft 68 kts 70°
2026-05-06 23:08 -32.78826 150.05825 4604 ft 81 kts 130°
2026-05-06 23:09 -32.79315 150.06132 4785 ft 73 kts 148°
2026-05-06 23:09 -32.79830 150.06489 4715 ft 92 kts 140°
2026-05-06 23:09 -32.80357 150.06914 4769 ft 89 kts 137°
2026-05-06 23:09 -32.80864 150.07332 4827 ft 90 kts 141°
2026-05-06 23:10 -32.81407 150.07762 4813 ft 93 kts 137°
2026-05-06 23:10 -32.81889 150.08235 4888 ft 90 kts 132°
2026-05-06 23:10 -32.82379 150.08731 4916 ft 92 kts 134°
2026-05-06 23:10 -32.82857 150.09222 4959 ft 91 kts 130°
2026-05-06 23:11 -32.83274 150.09751 4984 ft 89 kts 122°
2026-05-06 23:14 -32.83551 150.10320 5010 ft 90 kts 108°
2026-05-06 23:14 -32.83866 150.10945 5108 ft 89 kts 123°
2026-05-06 23:14 -32.84292 150.11530 5152 ft 92 kts 126°
2026-05-06 23:15 -32.84674 150.12117 5227 ft 91 kts 118°
2026-05-06 23:15 -32.84964 150.12789 5296 ft 90 kts 107°
2026-05-06 23:15 -32.85138 150.13498 5370 ft 88 kts 106°
2026-05-06 23:15 -32.85418 150.14192 5381 ft 95 kts 117°
2026-05-06 23:16 -32.85747 150.14852 5457 ft 94 kts 115°
2026-05-06 23:16 -32.86031 150.15544 5514 ft 93 kts 108°
2026-05-06 23:16 -32.86257 150.16271 5547 ft 96 kts 105°
2026-05-06 23:16 -32.86468 150.17015 5626 ft 94 kts 113°
2026-05-06 23:17 -32.86930 150.17548 5691 ft 97 kts 150°
2026-05-06 23:17 -32.87550 150.17906 5730 ft 99 kts 156°
2026-05-06 23:17 -32.88175 150.18262 5795 ft 99 kts 153°
2026-05-06 23:17 -32.88768 150.18692 5817 ft 101 kts 144°
2026-05-06 23:18 -32.89290 150.19230 5859 ft 100 kts 140°
2026-05-06 23:18 -32.89874 150.19641 5934 ft 97 kts 161°
2026-05-06 23:18 -32.90499 150.19880 6057 ft 95 kts 164°
2026-05-06 23:18 -32.91143 150.20215 6057 ft 104 kts 153°
2026-05-06 23:19 -32.91691 150.20727 6171 ft 100 kts 130°
2026-05-06 23:19 -32.92147 150.21372 6220 ft 104 kts 131°
2026-05-06 23:19 -32.92585 150.22054 6333 ft 102 kts 122°
2026-05-06 23:19 -32.92952 150.22770 6427 ft 102 kts 124°
2026-05-06 23:20 -32.93326 150.23476 6489 ft 102 kts 120°
2026-05-06 23:20 -32.93665 150.24224 6529 ft 105 kts 116°
2026-05-06 23:20 -32.93944 150.25023 6633 ft 103 kts 106°
2026-05-06 23:20 -32.94064 150.25869 6693 ft 105 kts 90°
2026-05-06 23:21 -32.94169 150.26693 6749 ft 107 kts 116°
2026-05-06 23:21 -32.94631 150.27382 6791 ft 107 kts 135°
2026-05-06 23:21 -32.95108 150.28020 6902 ft 103 kts 131°
2026-05-06 23:21 -32.95522 150.28743 6932 ft 106 kts 122°
2026-05-06 23:22 -32.95823 150.29556 6983 ft 107 kts 108°
2026-05-06 23:22 -32.96057 150.30407 7012 ft 109 kts 110°
2026-05-06 23:22 -32.96342 150.31282 6938 ft 120 kts 112°
2026-05-06 23:22 -32.96630 150.32161 6957 ft 114 kts 112°
2026-05-06 23:23 -32.96911 150.33038 7010 ft 109 kts 110°
2026-05-06 23:23 -32.97149 150.33857 7109 ft 107 kts 108°
2026-05-06 23:23 -32.97343 150.34735 7120 ft 109 kts 100°
2026-05-06 23:23 -32.97424 150.35610 7218 ft 106 kts 97°
2026-05-06 23:24 -32.97618 150.36462 7257 ft 109 kts 109°
2026-05-06 23:24 -32.97922 150.37287 7321 ft 108 kts 117°
2026-05-06 23:24 -32.98258 150.38095 7352 ft 110 kts 116°
2026-05-06 23:24 -32.98537 150.38935 7401 ft 109 kts 109°
2026-05-06 23:25 -32.98745 150.39811 7439 ft 110 kts 101°
2026-05-06 23:25 -32.98880 150.40705 7475 ft 110 kts 98°
2026-05-06 23:25 -32.98996 150.41603 7529 ft 109 kts 95°
2026-05-06 23:25 -32.99028 150.42512 7583 ft 111 kts 89°
2026-05-06 23:26 -32.99147 150.43420 7615 ft 112 kts 107°
2026-05-06 23:26 -32.99433 150.44279 7675 ft 110 kts 113°
2026-05-06 23:26 -32.99692 150.45141 7708 ft 112 kts 106°
2026-05-06 23:26 -32.99832 150.46051 7731 ft 112 kts 93°
2026-05-06 23:27 -32.99874 150.46971 7787 ft 111 kts 91°
2026-05-06 23:27 -32.99903 150.47908 7797 ft 113 kts 85°
2026-05-06 23:27 -32.99773 150.48797 7799 ft 110 kts 77°
2026-05-06 23:27 -32.99721 150.49745 7783 ft 113 kts 86°
2026-05-06 23:28 -32.99738 150.50689 7811 ft 111 kts 91°
2026-05-06 23:28 -32.99776 150.51611 7837 ft 114 kts 90°
2026-05-06 23:28 -32.99782 150.52559 7903 ft 111 kts 85°
2026-05-06 23:28 -32.99705 150.53480 7912 ft 114 kts 76°
2026-05-06 23:29 -32.99508 150.54379 7984 ft 108 kts 64°
2026-05-06 23:29 -32.99255 150.55225 8007 ft 112 kts 69°
2026-05-06 23:29 -32.99097 150.56146 8060 ft 111 kts 77°
2026-05-06 23:29 -32.98985 150.57068 8072 ft 114 kts 76°
2026-05-06 23:30 -32.98824 150.57988 8106 ft 111 kts 70°
2026-05-06 23:30 -32.98592 150.58870 8108 ft 113 kts 60°
2026-05-06 23:30 -32.98243 150.59683 8205 ft 106 kts 54°
2026-05-06 23:30 -32.97950 150.60527 8167 ft 117 kts 64°
2026-05-06 23:31 -32.97694 150.61401 8279 ft 109 kts 62°
2026-05-06 23:31 -32.97395 150.62251 8251 ft 114 kts 57°
2026-05-06 23:31 -32.97056 150.63078 8311 ft 108 kts 54°
2026-05-06 23:31 -32.96674 150.63867 8311 ft 109 kts 49°
2026-05-06 23:32 -32.96407 150.64683 8442 ft 108 kts 79°
2026-05-06 23:32 -32.96313 150.65604 8424 ft 116 kts 73°
2026-05-06 23:32 -32.96245 150.65963 8403 ft 118 kts 69°
2026-05-06 23:40 -32.96116 150.66461 8420 ft 119 kts 62°
2026-05-06 23:40 -32.95770 150.67336 8467 ft 113 kts 48°
2026-05-06 23:41 -32.95491 150.68216 8532 ft 117 kts 74°
2026-05-06 23:41 -32.95305 150.69195 8496 ft 123 kts 71°
2026-05-06 23:41 -32.95110 150.70155 8595 ft 117 kts 67°
2026-05-06 23:41 -32.94839 150.71079 8614 ft 117 kts 57°
2026-05-06 23:42 -32.94469 150.71925 8664 ft 117 kts 52°
2026-05-06 23:42 -32.94203 150.72868 8652 ft 123 kts 70°
2026-05-06 23:42 -32.94036 150.73857 8716 ft 122 kts 75°
2026-05-06 23:42 -32.93909 150.74873 8744 ft 122 kts 75°
2026-05-06 23:43 -32.93767 150.75864 8777 ft 122 kts 71°
2026-05-06 23:43 -32.93541 150.76821 8837 ft 118 kts 61°
2026-05-06 23:43 -32.93204 150.77689 8854 ft 118 kts 54°
2026-05-06 23:43 -32.92862 150.78589 8856 ft 118 kts 58°
2026-05-06 23:44 -32.92536 150.79498 8860 ft 120 kts 56°
2026-05-06 23:44 -32.92190 150.80390 8889 ft 119 kts 63°
2026-05-06 23:44 -32.92174 150.81446 8803 ft 131 kts 104°
2026-05-06 23:44 -32.92524 150.82421 8855 ft 127 kts 121°
2026-05-06 23:45 -32.92937 150.83343 8893 ft 123 kts 123°
2026-05-06 23:45 -32.93304 150.84276 8915 ft 127 kts 112°
2026-05-06 23:45 -32.93690 150.85217 8842 ft 131 kts 132°
2026-05-06 23:45 -32.94147 150.86090 8992 ft 120 kts 121°
2026-05-06 23:46 -32.94482 150.87056 8940 ft 130 kts 109°
2026-05-06 23:46 -32.94673 150.88069 9042 ft 124 kts 95°
2026-05-06 23:46 -32.94832 150.89107 8994 ft 130 kts 108°
2026-05-06 23:46 -32.95182 150.90073 9047 ft 124 kts 124°
2026-05-06 23:47 -32.95682 150.90914 9037 ft 124 kts 138°
2026-05-06 23:47 -32.96266 150.91645 9096 ft 122 kts 145°
2026-05-06 23:47 -32.96893 150.92344 9114 ft 124 kts 147°
2026-05-06 23:47 -32.97513 150.93030 9146 ft 122 kts 146°
2026-05-06 23:48 -32.98144 150.93729 9128 ft 124 kts 148°
2026-05-06 23:48 -32.98777 150.94400 9181 ft 122 kts 146°
2026-05-06 23:48 -32.99384 150.95150 9187 ft 126 kts 139°
2026-05-06 23:48 -32.99903 150.95977 9254 ft 126 kts 128°
2026-05-06 23:49 -33.00399 150.96838 9250 ft 126 kts 135°
2026-05-06 23:49 -33.00879 150.97719 9302 ft 126 kts 120°
2026-05-06 23:49 -33.01243 150.98678 9304 ft 130 kts 117°
2026-05-06 23:49 -33.01651 150.99622 9341 ft 129 kts 125°
2026-05-06 23:50 -33.02096 151.00552 9361 ft 129 kts 123°
2026-05-06 23:50 -33.02828 151.02502 9381 ft 130 kts 113°
2026-05-06 23:50 -33.03263 151.03426 9363 ft 131 kts 134°
2026-05-06 23:51 -33.03864 151.04211 9419 ft 122 kts 147°
2026-05-06 23:51 -33.04428 151.04964 9478 ft 125 kts 133°
2026-05-06 23:51 -33.04878 151.05911 9430 ft 132 kts 115°
2026-05-06 23:51 -33.05245 151.06875 9467 ft 130 kts 118°
2026-05-06 23:52 -33.05592 151.07902 9484 ft 130 kts 109°
2026-05-06 23:52 -33.05874 151.08910 9485 ft 133 kts 108°
2026-05-06 23:52 -33.06158 151.09973 9494 ft 132 kts 110°
2026-05-06 23:52 -33.06423 151.11003 9543 ft 131 kts 103°
2026-05-06 23:53 -33.06712 151.12002 9610 ft 128 kts 119°
2026-05-06 23:53 -33.07101 151.12967 9646 ft 129 kts 119°
2026-05-06 23:53 -33.07429 151.13979 9697 ft 130 kts 106°
2026-05-06 23:53 -33.07701 151.15012 9718 ft 130 kts 114°
2026-05-06 23:54 -33.08047 151.16009 9763 ft 131 kts 117°
2026-05-06 23:54 -33.08469 151.16979 9841 ft 128 kts 124°
2026-05-06 23:54 -33.08911 151.17898 9863 ft 132 kts 124°
2026-05-06 23:54 -33.09359 151.18858 9952 ft 127 kts 121°
2026-05-06 23:55 -33.09801 151.19773 9864 ft 135 kts 128°
2026-05-06 23:55 -33.10310 151.20753 9813 ft 139 kts 124°
2026-05-06 23:55 -33.10794 151.21818 9509 ft 146 kts 120°
2026-05-06 23:55 -33.11193 151.22905 9330 ft 146 kts 114°
2026-05-06 23:56 -33.11568 151.24058 9069 ft 146 kts 114°
2026-05-06 23:56 -33.11958 151.25165 8855 ft 147 kts 116°
2026-05-06 23:56 -33.12355 151.26292 8641 ft 144 kts 114°
2026-05-06 23:56 -33.12717 151.27407 8383 ft 148 kts 113°
2026-05-06 23:57 -33.13081 151.28528 8221 ft 144 kts 116°
2026-05-06 23:57 -33.13515 151.29607 7950 ft 144 kts 124°
2026-05-06 23:57 -33.14054 151.30590 7756 ft 141 kts 135°
2026-05-06 23:57 -33.14611 151.31554 7578 ft 139 kts 128°
2026-05-06 23:58 -33.15091 151.32560 7265 ft 143 kts 123°
2026-05-06 23:58 -33.15605 151.33544 6966 ft 137 kts 135°
2026-05-06 23:58 -33.16154 151.34460 6588 ft 136 kts 133°
2026-05-06 23:58 -33.16710 151.35367 6249 ft 134 kts 139°
2026-05-06 23:59 -33.17305 151.36171 5982 ft 128 kts 141°
2026-05-06 23:59 -33.17878 151.36983 5678 ft 128 kts 142°
2026-05-06 23:59 -33.18497 151.37731 5349 ft 123 kts 149°
2026-05-06 23:59 -33.19060 151.38490 5141 ft 123 kts 140°
2026-05-07 00:00 -33.19600 151.39286 4863 ft 123 kts 144°
2026-05-07 00:00 -33.20148 151.40073 4628 ft 121 kts 123°
2026-05-07 00:00 -33.20154 151.41030 4598 ft 119 kts 65°
2026-05-07 00:00 -33.19724 151.41885 4556 ft 121 kts 49°
2026-05-07 00:01 -33.19297 151.42740 4522 ft 123 kts 50°
2026-05-07 00:01 -33.18844 151.43621 4450 ft 126 kts 59°
2026-05-07 00:01 -33.18853 151.44588 4455 ft 112 kts 137°
2026-05-07 00:01 -33.19439 151.45261 3996 ft 125 kts 149°
2026-05-07 00:02 -33.20130 151.45648 3607 ft 105 kts 172°
2026-05-07 00:02 -33.20694 151.46370 2908 ft 137 kts 126°
2026-05-07 00:02 -33.20959 151.47482 2292 ft 136 kts 91°
2026-05-07 00:02 -33.20882 151.48584 1784 ft 131 kts 82°
2026-05-07 00:03 -33.20684 151.49515 1662 ft 100 kts 44°
2026-05-07 00:03 -33.20255 151.50068 1575 ft 81 kts
2026-05-07 00:03 -33.20202 151.49653 1262 ft 86 kts 234°
2026-05-07 00:03 -33.20478 151.49091 1264 ft 75 kts 255°
2026-05-07 00:04 -33.20680 151.48533 1226 ft 72 kts 251°
2026-05-07 00:04 -33.20954 151.48038 1269 ft 69 kts 234°
2026-05-07 00:04 -33.21272 151.47618 1284 ft 75 kts 240°
2026-05-07 00:04 -33.21496 151.47070 1313 ft 68 kts 257°
2026-05-07 00:05 -33.21610 151.46506 1311 ft 71 kts 261°
2026-05-07 00:05 -33.21715 151.46014 1386 ft 66 kts 258°
2026-05-07 00:19 -33.21867 151.45635 1311 ft 71 kts 243°
2026-05-07 00:20 -33.22156 151.45136 1077 ft 65 kts 211°
2026-05-07 00:20 -33.22652 151.45470 884 ft 89 kts 152°
2026-05-07 00:20 -33.23014 151.46002 929 ft 90 kts 103°
2026-05-07 00:20 -33.23005 151.46497 950 ft 84 kts 67°
2026-05-07 00:21 -33.22599 151.46746 817 ft 66 kts 316°
2026-05-07 00:21 -33.22553 151.46289 691 ft 66 kts 237°
2026-05-07 00:21 -33.22444 151.45680 622 ft 64 kts 294°
2026-05-07 00:21 -33.22375 151.45398 551 ft 50 kts 263°
2026-05-07 00:22 -33.22439 151.45019 463 ft 44 kts 263°
2026-05-07 00:22 -33.22761 151.44947 351 ft 59 kts 190°
2026-05-07 00:22 -33.22912 151.44667 399 ft 42 kts 262°
2026-05-07 00:22 -33.22971 151.44330 468 ft 44 kts 256°
2026-05-07 00:23 -33.23067 151.43965 414 ft 52 kts 261°
2026-05-07 00:23 -33.23298 151.43651 315 ft 56 kts 230°
2026-05-07 00:23 -33.23613 151.43379 121 ft 51 kts 232°
2026-05-07 00:23 -33.23861 151.43134 47 ft 43 kts 229°
2026-05-07 00:24 -33.24023 151.42911 67 ft 27 kts 268°
2026-05-07 00:24 -33.24014 151.42640 101 ft 36 kts 283°
2026-05-07 00:24 -33.24086 151.42367 169 ft 38 kts 275°
2026-05-07 00:24 -33.23981 151.42158 277 ft 27 kts 251°
2026-05-07 00:25 -33.24092 151.41914 297 ft 39 kts 260°
2026-05-07 00:25 -33.24296 151.41672 422 ft 60 kts 191°
2026-05-07 00:25 -33.24659 151.41946 655 ft 78 kts 134°
2026-05-07 00:25 -33.24911 151.42509 822 ft 88 kts 79°
2026-05-07 00:26 -33.24465 151.43039 813 ft 104 kts 47°
2026-05-07 00:26 -33.24101 151.43672 997 ft 83 kts 32°
2026-05-07 00:26 -33.23602 151.44122 961 ft 92 kts 34°
2026-05-07 00:26 -33.23196 151.44693 1096 ft 87 kts 36°
2026-05-07 00:27 -33.22744 151.45220 1277 ft 92 kts 33°
2026-05-07 00:27 -33.22246 151.45632 1406 ft 84 kts 357°
2026-05-07 00:27 -33.21823 151.45348 1462 ft 72 kts 301°
2026-05-07 00:27 -33.21959 151.44924 1294 ft 80 kts 224°
2026-05-07 00:28 -33.22398 151.44438 799 ft 86 kts 231°
2026-05-07 00:28 -33.22880 151.43993 397 ft 89 kts 218°
2026-05-07 00:28 -33.23297 151.43642 231 ft 66 kts 225°
2026-05-07 00:28 -33.23639 151.43335 70 ft 59 kts 228°
2026-05-07 00:29 -33.23891 151.43080 35 ft 23 kts 226°
2026-05-07 00:29 -33.23955 151.43053 33 ft 14 kts 218°
2026-05-07 00:30 -33.24111 151.42984 30 ft 10 kts 38°
2026-05-07 00:30 -33.24048 151.43040 31 ft 13 kts 36°
2026-05-07 00:30 -33.23983 151.43096 32 ft 0 kts 43°